Regional Weather Roundup
Issued by NWS

Home | Current Version | Previous Version | Text Only | Print | Product List | Glossary On
Versions: 1 2 3 4 5 6 7 8 9 10 11 12 13 14 15 16 17 18 19 20 21 22 23 24 25 26 27 28 29 30 31 32 33 34 35 36 37 38 39 40 41 42 43 44 45 46 47 48 49 50
000
ASUS44 KLUB 260601
RWRTX
WEST TEXAS WEATHER ROUNDUP
NATIONAL WEATHER SERVICE LUBBOCK TX
100 AM CDT FRI MAY 26 2017

NOTE: "FAIR" INDICATES FEW OR NO CLOUDS BELOW 12,000 FEET WITH NO
SIGNIFICANT WEATHER AND/OR OBSTRUCTIONS TO VISIBILITY.

TXZ004-006>008-010-012-014-016-OKZ002-260700-
TEXAS PANHANDLE/OKLAHOMA PANHANDLE

CITY           SKY/WX    TMP DP  RH WIND       PRES   REMARKS
AMARILLO       CLOUDY    67  32  27 SW13      29.69R
BORGER         CLOUDY    77  29  17 SW13G22   29.61R
CANADIAN       CLEAR     61  48  63 N3        29.54S
DALHART        CLOUDY    61  48  62 N15       29.74R
DUMAS          CLOUDY    65  33  29 NW21G31   29.69R
GUYMON         CLEAR     61  52  72 N10       29.67R
HEREFORD       MOCLDY    73  26  17 W14       29.73R
PAMPA          PTCLDY    73  31  20 SW12      29.63S
PERRYTON       CLEAR     65  56  71 N15       29.60R
$$

TXZ026-029-035-045-048-260700-
SOUTHERN PANHANDLE/SOUTH PLAINS/ROLLING PLAINS

CITY           SKY/WX    TMP DP  RH WIND       PRES   REMARKS
CHILDRESS      CLOUDY    78  34  20 SW14      29.59R
SEMINOLE       CLEAR     72  32  22 W8        29.79S
LUBBOCK        CLOUDY    77  25  14 W14       29.72S
PLAINVIEW      PTCLDY    65  32  29 SW9       29.71R
SNYDER         CLEAR     79  57  46 S10       29.73R
$$

TXZ052-054-060>062-072-078-127-140-154-169-260700-
PERMIAN BASIN/CONCHO VALLEY/BIG COUNTRY/EDWARDS PLATEAU

CITY           SKY/WX    TMP DP  RH WIND       PRES   REMARKS
ABILENE        CLEAR     82  61  48 SW25G32   29.69F
BIG SPRING     CLEAR     77  58  52 S16       29.78R
BROWNWOOD      MOCLDY    73  63  68 SE6       29.73S
JUNCTION       CLEAR     79  69  71 S6G16     29.76R
MIDLAND        CLEAR     80  60  50 S12       29.78S
ODESSA         PTCLDY    80  61  52 S21       29.80R
SAN ANGELO     CLEAR     80  61  52 S10       29.75R
SONORA         CLEAR     79  64  61 CALM      29.83R
SWEETWATER     CLEAR     80  59  50 S18       29.75S
WINK           PTCLDY    76  29  17 SE9       29.76R
$$

TXZ055-058-074-075-080-082-260700-
FAR WEST/SOUTHWEST MOUNTAINS/TRANS PECOS

CITY           SKY/WX    TMP DP  RH WIND       PRES   REMARKS
ALPINE         PTCLDY    71  33  24 SE3       29.99S
DRYDEN           N/A     78  65  63 N7        29.75R
EL PASO        MOCLDY    83  21  10 W16       29.91R
FORT STOCKTON  CLEAR     77  60  55 S13       29.82R
MARFA          CLOUDY    71  31  22 W9        29.99R
PECOS          PTCLDY    83  30  14 W12       29.77R
PRESIDIO       FAIR      87  32  14 W9        29.83R
$$

TXZ014-016-019-021>030-083-260700
TEXAS TECH WEST TEXAS MESONET/TEXAS PANHANDLE/NORTHERN SOUTH PLAINS

CITY           SKY/WX    TMP DP  RH WIND       PRES   REMARKS
ABERNATHY 5ENE   N/A     71  29  21 SW12      29.73R
AMARILLO 9NNE    N/A     74  30  19 S13       29.66R
AMARILLO 7SSE    N/A     63  33  32 SW10      29.70R
AMHERST 1NE      N/A     72  21  14 SW16      29.75R
BOOTLEG 11WNW    N/A     65  29  25 W16       29.80R
CANADIAN 6E      N/A     62  50  65 NW6       29.53S
CAPROCK CYN SP   N/A     82  25  12 SW20      29.64S
CHILDRESS 2NNE   N/A     82  33  17 SW16      29.57R
CLARENDON 2WSW   N/A     72  31  22 SW10      29.63R
CLAUDE 12SW      N/A     80  24  12 SW12      29.68R
DIMMITT 2NE      N/A     71  29  20 SW14      29.74R
FLOYDADA 2NNE    N/A     76  25  15 SW15      29.70S
FRIONA 2NE       N/A     67  26  21 W14       29.77R
GOODLETT 3W      N/A     75  35  23 SW12      29.55R
HART 3N          N/A     68  30  24 SW13      29.73R
HEREFORD 2NW     N/A     70  24  18 SW14      29.73S
MCLEAN 1E        N/A     77  29  17 SW12      29.60R
MEMPHIS 1NE      N/A     67  43  40 SW1       29.58R
MULESHOE 2SSW    N/A     74  21  13 SW15      29.75S
OLTON 6S         N/A     73  24  16 SW13      29.73R
PALO DURO SP     N/A     74  28  18 W10       29.70R
PAMPA 2E         N/A     75  29  18 SW9       29.62S
PLAINVIEW 1S     N/A     67  32  27 SW7       29.71R
SILVERTON 7ESE   N/A     69  30  23 SW12      29.68S
TULIA 2ENE       N/A     75  29  19 SW16      29.70S
TURKEY 2WSW      N/A     73  32  22 SW14      29.62S
UMBARGER 3NNE    N/A     68  30  24 SW14      29.72R
$$

TXZ033>036-039>041-045>048-260700
TEXAS TECH WEST TEXAS MESONET/SOUTH PLAINS

CITY           SKY/WX    TMP DP  RH WIND       PRES   REMARKS
AIKEN 3WSW       N/A     63  35  35 SW10      29.72S
ANDREWS 2NE      N/A     80  50  34 S12       29.80R
ANTON 6SSW       N/A     73  24  16 SW15      29.74R
BROWNFIELD 2S    N/A     73  30  21 SW13      29.76S
DENVR CTY 7WNW   N/A     71  22  16 SW12      29.79F
GAIL 2ESE        N/A     78  47  32 SW9       29.73R
LAMESA 2SE       N/A     76  47  36 S15       29.77R
LEVELLAND 4S     N/A     73  19  13 SW13      29.76S
LUBBOCK 3WNW     N/A     78  24  13 SW13      29.73S
MORTON 1ENE      N/A     74  18  12 SW17      29.77S
ODONNELL 1N      N/A     73  25  16 SW13      29.74S
PLAINS 3N        N/A     72  18  13 W9        29.79S
RALLS 1SE        N/A     73  31  20 SW12      29.73R
REESE CENTER     N/A     69  25  19 SW12      29.74S
SEAGRAVES 1SW    N/A     74  27  17 W13       29.77S
SEMINOLE 2NNE    N/A     72  29  19 SW9       29.77S
SLATON 2NE       N/A     77  26  15 SW16      29.73R
SNYDER 3E        N/A     80  58  47 S14       29.72R
SUNDOWN 8SW      N/A     70  21  15 SW10      29.78R
TAHOKA 3NNE      N/A     73  28  19 SW12      29.74S
WOLFFORTH 6SSW   N/A     69  28  21 SW10      29.75S
$$

TXZ031-032-036>038-042>044-260700-
TEXAS TECH WEST TEXAS MESONET/ROLLING PLAINS

CITY           SKY/WX    TMP DP  RH WIND       PRES   REMARKS
ASPERMONT 3NE    N/A     82  55  38 S16       29.64R
FLUVANNA 3WNW    N/A     79  49  34 SW15      29.73R
GRAHAM 5SSW      N/A     84  25  11 SW10      29.72F
GUTHRIE 10WSW    N/A     81  32  17 S13       29.63R
HASKELL 1NW      N/A     80  54  39 S14       29.63R
JAYTON 1SSE      N/A     81  47  29 SW12      29.66R
KNOX CITY 3NW    N/A     83  50  32 S20       29.61R
LK A HENRY 1NW   N/A     83  48  29 SW17      29.69R
NORTHFIELD 1S    N/A     78  34  19 SW14      29.60R
ODELL 4ENE       N/A     82  46  29 S17       29.54R
PADUCAH 10SW     N/A     86  29  13 SW17      29.61R
POST 1NE         N/A     86  23   9 W16       29.68F
RRING SPRGS 3N   N/A     81  32  17 SW13      29.66R
SEYMOUR 3NW      N/A     84  55  37 S16       29.59R
SPUR 1W          N/A     81  26  13 SW7       29.65S
WHITE RVR 6NE    N/A     84  25  11 SW15      29.69R
$$

TXZ052-054-060>062-072-078-127-140-154-169-260700-
TEXAS TECH WEST TEXAS MESONET/PERMIAN BASIN/
CONCHO VALLEY/BIG COUNTRY/EDWARDS PLATEAU

CITY           SKY/WX    TMP DP  RH WIND       PRES   REMARKS
COYANOSA 2N      N/A     79  56  44 S7        29.79R
JUNCTION 1SSW    N/A     79  69  72 S8        29.77R
MERTZON 3NNE     N/A     75  61  62 S8        29.78S
SAN ANGELO 7NW   N/A     77  59  54 CALM      29.75S
STRLNG CT 4WSW   N/A     79  61  52 S13       29.76S
ST LAWRNCE 5SW   N/A     75  59  57 S9        29.79S
SWEETWATR 11SW   N/A     79  61  54 S16       29.75S
WALL 1E          N/A     76  63  63 S9        29.76S
$$

TXZ055-058-074-075-080-082-260700-
TEXAS TECH WEST TEXAS MESONET/FAR WEST/SOUTHWEST MOUNTAINS/TRANS PECOS

CITY           SKY/WX    TMP DP  RH WIND       PRES   REMARKS
PRSMN GAP BBNP   N/A     83  59  43 N6        29.80R
GUADLPE MTN NP   N/A     77  22  12 SW28      29.96F
$$



USA.gov is the U.S. government's official web portal to all federal, state and local government web resources and services.